Location: Circle K Dam
(37.7517°N, 89.9701°W)
Time: 11:16:13
(UTC+00:00)

Tiangong - Visible Passes

Search period start: 10 October 2024 00:00
Search period end: 20 October 2024 00:00
Orbit: 373 x 377 km, 41.5° (Epoch: 10 October)

Date Brightness Start Highest point End Pass type
(mag) Time Alt. Az. Time Alt. Az. Time Alt. Az.
15 Oct 0.6 11:20:16 10° S 11:22:18 16° SE 11:24:22 10° ESE visible
17 Oct -0.3 10:50:30 16° SSW 10:52:15 26° SSE 10:54:54 10° E visible
18 Oct 1.3 09:50:37 10° ESE 09:50:37 10° ESE 09:50:45 10° ESE visible
18 Oct -2.1 11:22:37 13° WSW 11:25:19 77° SSE 11:28:24 10° ENE visible
19 Oct -0.7 10:22:32 36° ESE 10:22:32 36° ESE 10:24:52 10° E visible
